DW0307 Weather Reports


time (UTC)temp
F
wind
direction
speed
knots
gust
knots
rain 1hr
in
rain 24hr
in
rain mn
in
humidity
%
barometer
mb
20260831071549 70 188 1.7 4.3 0.00 0.00 0.00 65 1018.4
20260831070114 68 132 0.9 3.5 0.00 0.00 0.00 69 1018.5
20260831064554 67 123 1.7 3.5 0.00 0.00 0.00 70 1018.7
20260831063054 66 75 0.9 2.6 0.00 0.00 0.00 70 1018.7
20260831061551 65 0 0.0 1.7 0.00 0.00 0.00 75 1018.9
20260831060103 62 0 0.0 0.0 0.00 0.00 0.00 83 1018.9
20260831054555 59 0 0.0 0.9 0.00 0.00 0.00 88 1019.0
20260831053101 55 0 0.0 0.0 0.00 0.00 0.00 89 1019.0
20260831051556 53 0 0.0 0.0 0.00 0.00 0.00 90 1018.9
20260831050056 51 0 0.0 0.9 0.00 0.00 0.00 89 1018.8
20260831044610 49 0 0.0 1.7 0.00 0.00 0.00 89 1018.8
20260831043058 47 0 0.0 1.7 0.00 0.00 0.00 89 1018.8
20260831041559 47 0 0.0 0.9 0.00 0.00 0.00 88 1018.8
20260831040052 47 292 0.0 1.7 0.00 0.00 0.00 88 1018.8
20260831034557 47 0 0.9 2.6 0.00 0.00 0.00 88 1018.8
20260831033049 48 290 1.7 3.5 0.00 0.00 0.00 88 1018.8
20260831031556 48 224 0.9 3.5 0.00 0.00 0.00 88 1018.9
20260831024548 49 0 0.0 0.0 0.00 0.00 0.00 87 1018.8
20260831023055 49 152 0.0 4.3 0.00 0.00 0.00 87 1018.9
20260831021553 50 0 0.0 4.3 0.00 0.00 0.00 88 1018.8
20260831020052 51 150 0.0 2.6 0.00 0.00 0.00 88 1018.8
20260831014602 50 150 1.7 3.5 0.00 0.00 0.00 87 1018.7
20260831013057 50 0 1.7 3.5 0.00 0.00 0.00 87 1018.8
20260831011615 50 302 0.0 2.6 0.00 0.00 0.00 87 1018.7
20260831010058 50 302 0.0 3.5 0.00 0.00 0.00 86 1018.8
20260831004606 50 311 1.7 3.5 0.00 0.00 0.00 86 1018.8
20260831003104 51 298 2.6 3.5 0.00 0.00 0.00 86 1018.9
20260831001606 51 295 2.6 3.5 0.00 0.00 0.00 85 1019.0
20260831000058 52 340 0.0 2.6 0.00 0.00 0.00 85 1019.0
20260830234555 53 0 0.0 1.7 0.00 0.00 0.00 85 1018.8
20260830233055 54 352 0.9 3.5 0.00 0.00 0.00 85 1018.9
20260830231608 53 323 0.9 2.6 0.00 0.00 0.00 86 1019.0
20260830230057 53 321 1.7 4.3 0.00 0.00 0.00 86 1019.2
20260830224608 52 308 1.7 3.5 0.00 0.00 0.00 85 1019.2
20260830223054 53 319 0.9 3.5 0.00 0.00 0.00 85 1019.0
20260830221548 53 307 1.7 3.5 0.00 0.00 0.00 85 1018.9
20260830214604 54 302 0.9 3.5 0.00 0.00 0.00 85 1019.2
20260830213053 54 302 0.9 3.5 0.00 0.00 0.00 86 1018.9
20260830204559 54 0 0.0 2.6 0.00 0.00 0.00 84 1018.9
20260830203056 54 301 0.0 1.7 0.00 0.00 0.00 83 1018.8
20260830201552 55 301 0.9 2.6 0.00 0.00 0.00 83 1018.7
20260830200050 55 301 0.9 1.7 0.00 0.00 0.00 82 1018.9
20260830194601 56 301 0.9 2.6 0.00 0.00 0.00 81 1018.7
20260830193055 57 301 1.7 2.6 0.00 0.00 0.00 79 1018.6
20260830191551 58 301 1.7 2.6 0.00 0.00 0.00 78 1018.7
20260830190051 59 0 0.0 2.6 0.00 0.00 0.00 76 1018.6
20260830184559 61 301 0.9 4.3 0.00 0.00 0.00 75 1018.4
20260830183054 62 327 1.7 6.1 0.00 0.00 0.00 75 1018.4
20260830181551 61 310 2.6 4.3 0.00 0.00 0.00 76 1018.2
20260830180103 63 267 1.7 3.5 0.00 0.00 0.00 73 1018.1
20260830174556 65 0 0.0 0.9 0.00 0.00 0.00 70 1017.9
20260830173053 68 267 0.0 3.5 0.00 0.00 0.00 68 1017.8
20260830171557 71 262 2.6 3.5 0.00 0.00 0.00 64 1017.7
20260830170101 73 0 0.0 1.7 0.00 0.00 0.00 58 1017.6
20260830164601 74 261 0.9 2.6 0.00 0.00 0.00 56 1017.5
20260830163100 75 261 2.6 6.1 0.00 0.00 0.00 53 1017.4
20260830161600 76 254 5.2 8.7 0.00 0.00 0.00 49 1017.5
20260830160053 78 257 6.1 8.7 0.00 0.00 0.00 48 1017.4
20260830154601 79 257 4.3 9.6 0.00 0.00 0.00 47 1017.3
20260830153059 79 261 7.0 12.2 0.00 0.00 0.00 45 1017.4
20260830151608 80 259 7.0 11.3 0.00 0.00 0.00 45 1017.5
20260830150055 80 250 8.7 11.3 0.00 0.00 0.00 44 1017.5
20260830144552 80 252 8.7 12.2 0.00 0.00 0.00 40 1017.4
20260830143110 80 250 9.6 13.9 0.00 0.00 0.00 42 1017.7
20260830141551 80 265 9.6 13.9 0.00 0.00 0.00 42 1017.7
20260830140051 81 257 7.0 13.9 0.00 0.00 0.00 41 1017.6
20260830134555 81 265 9.6 17.4 0.00 0.00 0.00 42 1017.8
20260830133051 80 270 10.4 14.8 0.00 0.00 0.00 41 1017.8
20260830131603 80 242 8.7 14.8 0.00 0.00 0.00 40 1017.8
20260830130107 80 251 12.2 20.0 0.00 0.00 0.00 35 1017.9
20260830124555 80 241 12.2 17.4 0.00 0.00 0.00 38 1017.9
20260830123108 80 249 7.8 14.8 0.00 0.00 0.00 39 1017.9
20260830121605 79 268 7.0 15.6 0.00 0.00 0.00 40 1018.0
20260830120058 80 273 8.7 13.9 0.00 0.00 0.00 43 1018.2
20260830114610 79 241 12.2 17.4 0.00 0.00 0.00 41 1018.4
20260830113100 79 235 9.6 15.6 0.00 0.00 0.00 42 1018.5
20260830111601 78 246 11.3 15.6 0.00 0.00 0.00 40 1018.6
20260830110058 78 244 7.8 12.2 0.00 0.00 0.00 45 1018.7
20260830104555 78 244 6.1 13.9 0.00 0.00 0.00 44 1018.8
20260830103053 78 242 5.2 9.6 0.00 0.00 0.00 46 1018.9
20260830101603 78 221 6.1 10.4 0.00 0.00 0.00 46 1018.8
20260830100058 78 250 5.2 13.0 0.00 0.00 0.00 46 1018.9
20260830094552 77 257 5.2 11.3 0.00 0.00 0.00 47 1019.1
20260830093050 76 198 6.1 8.7 0.00 0.00 0.00 55 1019.2
20260830091557 74 148 2.6 12.2 0.00 0.00 0.00 56 1019.1
20260830090051 75 221 2.6 9.6 0.00 0.00 0.00 56 1019.2
20260830084609 74 231 1.7 8.7 0.00 0.00 0.00 62 1019.3
20260830083058 72 134 3.5 7.8 0.00 0.00 0.00 62 1019.4
20260830081604 71 142 4.3 8.7 0.00 0.00 0.00 63 1019.4
20260830080052 71 104 2.6 5.2 0.00 0.00 0.00 65 1019.3
20260830074604 71 0 1.7 5.2 0.00 0.00 0.00 65 1019.4
20260830073104 71 212 0.9 3.5 0.00 0.00 0.00 66 1019.3